Simultaneous Nadir Overpasses (SNOs) Predictions

Prediction of SNOs between FY3D and TERRA Satellite Orbit:

Table of predicted SNOs for the next 14.0 days since TLE Epoch: 11/23/2024
<
Index Date (FY3D) Time (FY3D) Lat,Lon (FY3D) SZA (FY3D ) Date (TERRA) Time (TERRA) Lat,Lon (TERRA) SZA (TERRA ) Distance(km) Time Diff (sec)
1 11/24/2024 00:26:55 -76.65, -6.64 82.80 11/24/2024 00:27:59 -76.62, -6.64 82.83 4.22 64
2 11/24/2024 01:17:39 76.57, 161.00 97.13 11/24/2024 01:17:20 76.57, 160.87 97.13 3.26 19
3 11/26/2024 11:39:26 -76.63,-174.63 82.35 11/26/2024 11:40:10 -76.63,-174.69 82.35 1.72 44
4 11/26/2024 12:30:11 76.59, -7.16 97.63 11/26/2024 12:29:31 76.58, -7.18 97.61 1.37 40
5 11/28/2024 22:51:56 -76.62, 17.33 81.92 11/28/2024 22:52:19 -76.64, 17.26 81.91 2.28 23
6 11/28/2024
